Location: B?dimalle
(17.1788°N, 80.5377°E)
Time: 00:27:35
(UTC+00:00)

Injun/Solrad 3 - Pass Details

Date: 25 February 2026
Orbit: 872 x 984 km, 66.8° (Epoch: 7 March)

Event Time Altitude Azimuth Distance (km) Brightness Sun altitude
Rises 14:28:53 0° 331° (NNW) 3,629 11.3 -25.9°
Reaches altitude 10° 14:31:28 10° 327° (NNW) 2,696 10.7 -26.5°
Maximum altitude 14:37:37 55° 251° (WSW) 1,155 8.6 -28.0°
Drops below altitude 10° 14:43:50 10° 175° (S) 2,728 10.3 -29.5°
Enters shadow 14:45:50 - 171° (S) 3,445 10.8 -30.0°
